{"data":{"norad_id":64192,"intl_designator":"2025-113Y","name":"STARLINK-34265","alt_names":[],"object_type":"PAYLOAD","status":"ACTIVE","operator":null,"country":"US","launch_date":"2025-05-28","launch_site_code":"AFETR","launch_vehicle":null,"mission":null,"orbit_class":"UNKNOWN","rcs_meters":null,"size_class":null,"mass_kg":null,"dimensions":null,"purposes":["comms"],"wikipedia_slug":null,"has_3d_model":false,"image_url":null,"decayed_at":null,"tle_current":{"epoch":"2026-09-20T07:23:22.763904Z","epoch_age_seconds":156972,"freshness":"FRESH","line1":"1 64192U 25113Y   26263.30790236  .00009800  00000+0  30076-3 0  9998","line2":"2 64192  53.1582 266.3257 0001379  73.4494 286.6660 15.34402572 74839","mean_motion":15.34402572,"eccentricity":0.0001379,"inclination_deg":53.1582,"raan_deg":266.3257,"arg_perigee_deg":73.4494,"mean_anomaly_deg":286.666,"bstar":0.00030076,"rev_number":7483,"period_min":93.847600771618,"perigee_km":461.75224487681,"apogee_km":463.6389465067,"semimajor_km":6840.8325956918,"source":"CELESTRAK","updated_at":"2026-09-21T09:00:35.268492Z"}}}